Weather History for Alice, TX

Change the Weather History Date:

Saturday, March 2, 2013

  Actual Average Record
Temperature  
Mean Temperature 58 °F -  
Max Temperature 71 °F 71 °F 95 °F (1999)
Min Temperature 45 °F 50 °F 34 °F (2009)
Degree Days  
Heating Degree Days 7    
Growing Degree Days 8 (Base 50)    
Moisture  
Dew Point 27 °F    
Average Humidity 36    
Maximum Humidity 63    
Minimum Humidity 18    
Precipitation  
Precipitation 0.00 in - - ()
Sea Level Pressure  
Sea Level Pressure 30.32 in    
Wind  
Wind Speed 10 mph (North)    
Max Wind Speed 20 mph    
Max Gust Speed 24 mph    
Visibility 10 miles    
Events      
Averages and records for this station are not official NWS values.
T = Trace of Precipitation, MM = Missing Value Source: NWS Daily Summary

Daily Weather History Graph

Daily Weather History Graph

Search for Another Location

Airport:

Trip Planner

Search our weather history database for the weather conditions in past years. The results will help you decide how hot, cold, wet, or windy it might be!

Date:

Astronomy

Mar. 02, 2013 Rise Set
Actual Time 6:55 AM CST 6:33 PM CST
Civil Twilight 6:31 AM CST 6:56 PM CST
Nautical Twilight 6:04 AM CST 7:24 PM CST
Astronomical Twilight 5:37 AM CST 7:51 PM CST
Moon 11:41 PM CST (3/2) 9:54 AM CST (3/2)
Length of Visible Light 12h 25m
Length of Day
11h 38m
Waning Gibbous, 74% of the Moon is Illuminated
Mar 2
Waning Gibbous
Mar 4
Last Quarter
Mar 11
New
Mar 19
First Quarter
Mar 27
Full

Hourly Weather History & Observations

Time (CST) Temp. Windchill Dew Point Humidity Pressure Visibility Wind Dir Wind Speed Gust Speed Precip Events Conditions
12:53 AM 46.0 °F 42.5 °F 34.0 °F 63% 30.25 in 10.0 mi NW 6.9 mph - N/A   Clear
1:53 AM 46.9 °F - 35.1 °F 63% 30.26 in 10.0 mi NNW 8.1 mph - N/A   Clear
2:53 AM 48.2 °F - 32.0 °F 54% 30.26 in 10.0 mi North 9.2 mph - N/A   Clear
3:53 AM 46.0 °F 41.9 °F 32.0 °F 58% 30.28 in 10.0 mi North 8.1 mph - N/A   Clear
4:53 AM 46.9 °F - 28.9 °F 50% 30.31 in 10.0 mi North 9.2 mph - N/A   Clear
5:53 AM 46.4 °F 42.4 °F 28.4 °F 50% 30.33 in 10.0 mi North 8.1 mph - N/A   Clear
6:53 AM 45.0 °F 40.1 °F 28.0 °F 52% 30.36 in 10.0 mi North 9.2 mph - N/A   Clear
7:53 AM 48.9 °F - 28.9 °F 46% 30.40 in 10.0 mi North 11.5 mph - N/A   Clear
8:53 AM 54.0 °F - 30.0 °F 40% 30.42 in 10.0 mi NNE 18.4 mph - N/A   Clear
9:53 AM 57.9 °F - 28.0 °F 32% 30.42 in 10.0 mi NNE 15.0 mph - N/A   Clear
10:53 AM 61.0 °F - 26.1 °F 26% 30.43 in 10.0 mi North 16.1 mph 19.6 mph N/A   Clear
11:53 AM 63.0 °F - 24.1 °F 23% 30.41 in 10.0 mi North 19.6 mph 24.2 mph N/A   Clear
12:53 PM 66.0 °F - 25.0 °F 21% 30.38 in 10.0 mi NNW 17.3 mph 23.0 mph N/A   Clear
1:53 PM 68.0 °F - 25.0 °F 20% 30.33 in 10.0 mi North 17.3 mph 21.9 mph N/A   Clear
2:53 PM 70.0 °F - 25.0 °F 18% 30.30 in 10.0 mi NW 16.1 mph 20.7 mph N/A   Clear
3:53 PM 70.0 °F - 24.1 °F 18% 30.27 in 10.0 mi NW 12.7 mph 21.9 mph N/A   Clear
4:53 PM 71.1 °F - 25.0 °F 18% 30.26 in 10.0 mi NNE 10.4 mph - N/A   Clear
5:53 PM 69.1 °F - 25.0 °F 19% 30.26 in 10.0 mi NE 6.9 mph - N/A   Clear
6:53 PM 62.6 °F - 24.8 °F 24% 30.27 in 10.0 mi NE 5.8 mph - N/A   Clear
7:53 PM 55.9 °F - 23.0 °F 28% 30.28 in 10.0 mi ENE 8.1 mph - N/A   Clear
8:53 PM 54.0 °F - 21.9 °F 29% 30.29 in 10.0 mi East 5.8 mph - N/A   Clear
9:53 PM 52.0 °F - 19.9 °F 28% 30.30 in 10.0 mi East 3.5 mph - N/A   Clear
10:53 PM 48.9 °F - 21.0 °F 33% 30.30 in 10.0 mi SE 3.5 mph - N/A   Clear
11:53 PM 48.0 °F - 24.1 °F 39% 30.29 in 10.0 mi South 4.6 mph - N/A   Clear